Погода в Рубине

Россия / Кемеровская область (Кузбасс)     56°21′28″N   88°10′24″E
темп.,
°C
ветер,
м/с
пор.,
м/с
влажн.,
%
обл.,
%
осадки,
мм/ч
давл.,
гПа
погр.,
м
28 ноября, вс
вс2801:00−7юз81793100 3.2 10251137
04:00−7юз91793100 1.8 10241176
07:00−6зюз81593100 3.2 10231078
10:00−6зюз71494100 1.7 1025867
13:00−6зюз71494100 2.7 1027770
16:00−6зюз71494100 0.9 1028778
19:00−7зюз71592100 1.8 1030755
22:00−7зюз71590100 0.3 1031646
29 ноября, пн
пн2901:00−7зюз61492100 0.6 1033618
04:00−8юз61392100 0.2 1034503
07:00−8зюз51392100 0.3 1035514
10:00−9юз51391100 0.1 1035508
13:00−7юз51389100 0.2 1034570
16:00−6юз51394100 0.2 1032605
19:00−7юз51487100 0.4 1032508
22:00−7юз51486100 0.0 1031515
30 ноября, вт
вт3001:00−7юз5158399 0.0 1029486
04:00−8юз5167994 0.0 1029448
07:00−8юз5167893 0.0 1027446
10:00−7юз61776100 0.0 1027487
13:00−6юз6177570 0.0 1026586
16:00−6юз6177542 0.0 1026535
19:00−7юз616786 0.0 1026490
22:00−7зюз6167937 0.0 1027468
1 декабря, ср
ср101:00−9юз515825 0.0 1027398
04:00−11зюз3128738 0.0 1028245
07:00−13зюз299134 0.0 1029128
10:00−14юз269280 0.0 1029103
13:00−7зюз3138573 0.0 1028408
16:00−6юз41381100 0.0 1027399
19:00−6юз5168098 0.0 1025430
22:00−5юз61777100 0.0 1024505
2 декабря, чт
чт201:00−5юз61777100 0.0 1024474
04:00−5юз51677100 0.0 1023473
07:00−6юз51578100 0.0 1024417
10:00−6юз51578100 0.0 1023393
13:00−3юз51675100 0.0 1022472
16:00−3юз51574100 0.0 1021493
19:00−3юз51674100 0.0 1020450
22:00−2юз51671100 0.0 1018471